When you browse on this site, cookies collect data to enhance your experience and personalize the content and advertising you see.
Visit our Privacy Policy to learn more. By continuing to use the site, you agree to this use of cookies and data.
  • In Slovakia
  • List of Countries
  • For 7 days
  • Water Temperature
  • Satellite Maps
  • Weather Map
  • Weather Widgets
  • user-avatar
    Login

    Hourly Weather Andora

    Today, 19 February, Tuesday

    Time Temperature Precipitation Wind Pressure Humidity
    00:00 0°C° 0 mm 1 mps 623 mmHg 57%
    01:00 0°C° 0 mm 1 mps 623 mmHg 55%
    02:00 0°C° 0 mm 1 mps 623 mmHg 53%
    03:00 0°C° 0 mm 1 mps 623 mmHg 51%
    04:00 0°C° 0 mm 1 mps 623 mmHg 50%
    05:00 0°C° 0 mm 1 mps 623 mmHg 48%
    06:00 0°C° 0 mm 1 mps 623 mmHg 47%
    07:00 +1°C° 0 mm 1 mps 624 mmHg 44%
    08:00 +2°C° 0 mm 0 mps 625 mmHg 42%
    09:00 +4°C° 0 mm 0 mps 625 mmHg 39%
    10:00 +5°C° 0 mm 0 mps 626 mmHg 39%
    11:00 +7°C° 0 mm 1 mps 626 mmHg 39%
    12:00 +8°C° 0 mm 1 mps 627 mmHg 39%
    13:00 +8°C° 0 mm 1 mps 626 mmHg 41%
    14:00 +7°C° 0 mm 1 mps 626 mmHg 44%
    15:00 +7°C° 0 mm 1 mps 625 mmHg 46%
    16:00 +5°C° 0 mm 1 mps 625 mmHg 56%
    17:00 +3°C° 0 mm 1 mps 624 mmHg 66%
    18:00 0°C° 0 mm 0 mps 623 mmHg 76%
    19:00 0°C° 0 mm 0 mps 623 mmHg 76%
    20:00 -1°C° 0 mm 0 mps 623 mmHg 76%
    21:00 0°C° 0 mm 1 mps 624 mmHg 76%
    22:00 0°C° 0 mm 1 mps 624 mmHg 74%
    23:00 0°C° 0 mm 1 mps 624 mmHg 73%

    Tomorrow, 20 February, Wednesday

    Time Temperature Precipitation Wind Pressure Humidity
    00:00 0°C° 0 mm 1 mps 624 mmHg 71%
    01:00 -1°C° 0 mm 0 mps 624 mmHg 70%
    02:00 -1°C° 0 mm 0 mps 624 mmHg 69%
    03:00 -1°C° 0 mm 0 mps 624 mmHg 68%
    04:00 -1°C° 0 mm 0 mps 624 mmHg 68%
    05:00 0°C° 0 mm 1 mps 624 mmHg 67%
    06:00 0°C° 0 mm 1 mps 624 mmHg 66%
    07:00 +1°C° 0 mm 0 mps 625 mmHg 60%
    08:00 +3°C° 0 mm 0 mps 626 mmHg 54%
    09:00 +5°C° 0 mm 0 mps 627 mmHg 48%
    10:00 +6°C° 0 mm 0 mps 628 mmHg 45%
    11:00 +8°C° 0 mm 1 mps 628 mmHg 42%
    12:00 +9°C° 0 mm 1 mps 628 mmHg 39%
    13:00 +9°C° 0 mm 1 mps 628 mmHg 41%
    14:00 +9°C° 0 mm 1 mps 628 mmHg 43%
    15:00 +8°C° 0 mm 1 mps 628 mmHg 45%
    16:00 +6°C° 0 mm 1 mps 627 mmHg 55%
    17:00 +4°C° 0 mm 1 mps 626 mmHg 66%
    18:00 +1°C° 0 mm 0 mps 626 mmHg 76%
    19:00 +1°C° 0 mm 0 mps 626 mmHg 76%
    20:00 +1°C° 0 mm 1 mps 626 mmHg 76%
    21:00 +1°C° 0 mm 1 mps 627 mmHg 76%
    22:00 +1°C° 0 mm 1 mps 627 mmHg 74%
    23:00 +1°C° 0 mm 1 mps 627 mmHg 73%

    Day after tomorrow, 21 February, Thursday

    Time Temperature Precipitation Wind Pressure Humidity
    00:00 +1°C° 0 mm 1 mps 627 mmHg 71%
    01:00 +1°C° 0 mm 1 mps 627 mmHg 70%
    02:00 +1°C° 0 mm 1 mps 627 mmHg 69%
    03:00 +1°C° 0 mm 1 mps 627 mmHg 68%
    04:00 +1°C° 0 mm 1 mps 627 mmHg 66%
    05:00 +1°C° 0 mm 1 mps 627 mmHg 65%
    06:00 +1°C° 0 mm 1 mps 628 mmHg 64%
    07:00 +2°C° 0 mm 0 mps 629 mmHg 58%
    08:00 +4°C° 0 mm 0 mps 630 mmHg 52%
    09:00 +6°C° 0 mm 0 mps 631 mmHg 46%
    10:00 +7°C° 0 mm 0 mps 631 mmHg 42%
    11:00 +9°C° 0 mm 1 mps 632 mmHg 39%
    12:00 +11°C° 0 mm 1 mps 632 mmHg 35%
    13:00 +10°C° 0 mm 1 mps 632 mmHg 37%
    14:00 +10°C° 0 mm 1 mps 632 mmHg 40%
    15:00 +10°C° 0 mm 1 mps 632 mmHg 42%
    16:00 +8°C° 0 mm 1 mps 631 mmHg 52%
    17:00 +4°C° 0 mm 0 mps 630 mmHg 62%
    18:00 +2°C° 0 mm 0 mps 629 mmHg 71%
    19:00 +2°C° 0 mm 0 mps 630 mmHg 71%
    20:00 +3°C° 0 mm 1 mps 630 mmHg 70%
    21:00 +3°C° 0 mm 1 mps 630 mmHg 70%
    22:00 +3°C° 0 mm 1 mps 630 mmHg 67%
    23:00 +3°C° 0 mm 1 mps 630 mmHg 65%

    22 February, Friday

    Time Temperature Precipitation Wind Pressure Humidity
    00:00 +3°C° 0 mm 1 mps 631 mmHg 62%
    01:00 +3°C° 0 mm 1 mps 630 mmHg 56%
    02:00 +3°C° 0 mm 1 mps 630 mmHg 49%
    03:00 +3°C° 0 mm 1 mps 630 mmHg 43%
    04:00 +3°C° 0 mm 1 mps 630 mmHg 37%
    05:00 +3°C° 0 mm 1 mps 630 mmHg 31%
    06:00 +2°C° 0 mm 2 mps 630 mmHg 25%
    07:00 +5°C° 0 mm 1 mps 631 mmHg 25%
    08:00 +7°C° 0 mm 1 mps 632 mmHg 25%
    09:00 +9°C° 0 mm 1 mps 633 mmHg 24%
    10:00 +11°C° 0 mm 1 mps 633 mmHg 24%
    11:00 +12°C° 0 mm 1 mps 634 mmHg 24%
    12:00 +14°C° 0 mm 1 mps 634 mmHg 23%
    13:00 +14°C° 0 mm 1 mps 634 mmHg 27%
    14:00 +14°C° 0 mm 1 mps 633 mmHg 31%
    15:00 +14°C° 0 mm 1 mps 633 mmHg 34%
    16:00 +11°C° 0 mm 1 mps 632 mmHg 41%
    17:00 +9°C° 0 mm 1 mps 630 mmHg 47%
    18:00 +6°C° 0 mm 1 mps 629 mmHg 53%
    19:00 +6°C° 0 mm 1 mps 629 mmHg 48%
    20:00 +5°C° 0 mm 1 mps 629 mmHg 43%
    21:00 +4°C° 0 mm 2 mps 629 mmHg 38%
    22:00 +5°C° 0 mm 1 mps 629 mmHg 33%
    23:00 +5°C° 0 mm 1 mps 629 mmHg 29%

    23 February, Saturday

    Time Temperature Precipitation Wind Pressure Humidity
    00:00 +5°C° 0 mm 1 mps 629 mmHg 24%
    01:00 +5°C° 0 mm 1 mps 629 mmHg 23%
    02:00 +5°C° 0 mm 1 mps 629 mmHg 22%
    03:00 +5°C° 0 mm 1 mps 629 mmHg 21%
    04:00 +5°C° 0 mm 1 mps 629 mmHg 21%
    05:00 +5°C° 0 mm 1 mps 629 mmHg 22%
    06:00 +4°C° 0 mm 1 mps 629 mmHg 22%
    07:00 +7°C° 0 mm 1 mps 630 mmHg 24%
    08:00 +9°C° 0 mm 1 mps 632 mmHg 25%
    09:00 +10°C° 0 mm 0 mps 633 mmHg 26%
    10:00 +12°C° 0 mm 1 mps 633 mmHg 26%
    11:00 +14°C° 0 mm 1 mps 634 mmHg 25%
    12:00 +15°C° 0 mm 1 mps 634 mmHg 25%
    13:00 +15°C° 0 mm 1 mps 634 mmHg 28%
    14:00 +15°C° 0 mm 1 mps 634 mmHg 31%
    15:00 +15°C° 0 mm 1 mps 634 mmHg 34%
    16:00 +12°C° 0 mm 1 mps 633 mmHg 43%
    17:00 +10°C° 0 mm 1 mps 632 mmHg 53%
    18:00 +6°C° 0 mm 0 mps 631 mmHg 63%
    19:00 +6°C° 0 mm 1 mps 631 mmHg 61%
    20:00 +6°C° 0 mm 1 mps 631 mmHg 59%
    21:00 +6°C° 0 mm 1 mps 631 mmHg 57%
    22:00 +6°C° 0 mm 1 mps 631 mmHg 50%
    23:00 +5°C° 0 mm 1 mps 631 mmHg 44%

    24 February, Sunday

    Time Temperature Precipitation Wind Pressure Humidity
    00:00 +5°C° 0 mm 1 mps 631 mmHg 37%
    01:00 +5°C° 0 mm 1 mps 631 mmHg 35%
    02:00 +4°C° 0 mm 2 mps 631 mmHg 32%
    03:00 +4°C° 0 mm 2 mps 630 mmHg 29%
    04:00 +3°C° 0 mm 2 mps 630 mmHg 31%
    05:00 +3°C° 0 mm 2 mps 630 mmHg 33%
    06:00 +3°C° 0 mm 2 mps 630 mmHg 34%
    07:00 +5°C° 0 mm 2 mps 631 mmHg 35%
    08:00 +7°C° 0 mm 2 mps 632 mmHg 35%
    09:00 +9°C° 0 mm 2 mps 633 mmHg 35%
    10:00 +12°C° 0 mm 2 mps 634 mmHg 33%
    11:00 +13°C° 0 mm 2 mps 635 mmHg 31%
    12:00 +14°C° 0 mm 2 mps 635 mmHg 28%
    13:00 +14°C° 0 mm 2 mps 635 mmHg 30%
    14:00 +14°C° 0 mm 2 mps 634 mmHg 32%
    15:00 +13°C° 0 mm 2 mps 634 mmHg 34%
    16:00 +10°C° 0 mm 2 mps 633 mmHg 44%
    17:00 +8°C° 0 mm 1 mps 632 mmHg 54%
    18:00 +6°C° 0 mm 1 mps 632 mmHg 64%
    19:00 +5°C° 0 mm 1 mps 632 mmHg 61%
    20:00 +5°C° 0 mm 1 mps 632 mmHg 59%
    21:00 +4°C° 0 mm 1 mps 632 mmHg 57%
    22:00 +4°C° 0 mm 1 mps 632 mmHg 53%
    23:00 +4°C° 0 mm 1 mps 632 mmHg 49%
    Show more